SYRACUSE 3A (28885 NORAD) Tracking and Keplerian Element Data

This shows tracking and keplerian element data for the satellite.

Feedback or suggestion? Click here.




ElementValue
Catalog28885
NameSYRACUSE 3A
Epoch Orbit7074
Epoch Day34.68791789
Epoch Year2025
RAAN82.081
Inclination3.3681
Eccentricity0.0002865
Argument of Perigee236.7059
Mean Anonmoly84.7284
Mean Motion1.00270734
Decay Rate1.33E-06
L11 28885U 05041B 25034.68791789 .00000133 00000+0 00000+0 0 9995
L22 28885 3.3681 82.0810 0002865 236.7059 84.7284 1.00270734 70741



Live tracking and technical data element details for SYRACUSE 3A (NORAD 28885). SYRACUSE 3A can be tracked NOW for your location showing map with azimuth and elevation plus other details from your city location.







IsCatalogInMostPopularTable: catalog: 28885, numindb: 424
Update: records affected: 1



GetName: 28885 SYRACUSE 3A

Hit Count: updated at: Thu, 22 May 2025 04:22:10 GMT